User: anonymous   Login
Location: Armidale
(30.5016°S, 151.6662°E)
Time: 11:28:21
(UTC+10:00)
Language:

BEESAT 3 - Orbit

View from above orbital plane
View from above orbital plane
View from above satellite
View from above satellite

Ground track
Ground track

The orbit data is extracted from the following two-line orbital elements,

1 39134U 13015E   21216.51974409  .00002327  00000-0  10756-3 0  9997
2 39134  64.8642  16.1239 0013274 319.8017  40.2128 15.22837544458533
Epoch (UTC): 04 August 2021 12:28:25
Eccentricity: 0.0013274
inclination: 64.8642°
perigee height: 488 km
apogee height: 506 km
right ascension of ascending node: 16.1239°
argument of perigee: 319.8017°
revolutions per day: 15.22837544
mean anomaly at epoch: 40.2128°
orbit number at epoch: 45853

The dashed part of the orbit path shows where the satellite is in the earth's shadow,  

DLR